TimeCST,TemperatureF,Dew PointF,Humidity,Sea Level PressureIn,VisibilityMPH,Wind Direction,Wind SpeedMPH,Gust SpeedMPH,PrecipitationIn,Events,Conditions,WindDirDegrees,DateUTC
12:15 AM,26.6,24.8,93,30.41,10.0,Calm,Calm,-,N/A,,Overcast,0,2013-12-07 06:15:00
12:35 AM,26.6,24.8,93,30.41,8.0,Calm,Calm,-,N/A,,Overcast,0,2013-12-07 06:35:00
12:55 AM,26.6,24.8,93,30.40,10.0,Calm,Calm,-,N/A,,Overcast,0,2013-12-07 06:55:00
1:15 AM,26.6,23.0,86,30.41,10.0,Calm,Calm,-,N/A,,Overcast,0,2013-12-07 07:15:00
1:35 AM,26.6,23.0,86,30.41,9.0,Calm,Calm,-,N/A,,Overcast,0,2013-12-07 07:35:00
1:55 AM,26.6,23.0,86,30.41,9.0,Calm,Calm,-,N/A,,Overcast,0,2013-12-07 07:55:00
2:15 AM,26.6,24.8,93,30.41,8.0,Calm,Calm,-,N/A,,Overcast,0,2013-12-07 08:15:00
2:35 AM,26.6,24.8,93,30.41,8.0,Calm,Calm,-,N/A,,Overcast,0,2013-12-07 08:35:00
2:55 AM,26.6,24.8,93,30.42,8.0,Calm,Calm,-,N/A,,Overcast,0,2013-12-07 08:55:00
3:15 AM,26.6,24.8,93,30.42,9.0,Calm,Calm,-,N/A,,Overcast,0,2013-12-07 09:15:00
3:35 AM,26.6,24.8,93,30.42,8.0,Calm,Calm,-,N/A,,Overcast,0,2013-12-07 09:35:00
3:55 AM,26.6,24.8,93,30.43,8.0,Calm,Calm,-,N/A,,Overcast,0,2013-12-07 09:55:00
4:15 AM,26.6,24.8,93,30.43,7.0,Calm,Calm,-,N/A,,Overcast,0,2013-12-07 10:15:00
4:35 AM,26.6,23.0,86,30.43,8.0,Calm,Calm,-,N/A,,Overcast,0,2013-12-07 10:35:00
4:55 AM,26.6,23.0,86,30.44,8.0,Calm,Calm,-,N/A,,Overcast,0,2013-12-07 10:55:00
5:15 AM,24.8,23.0,93,30.45,8.0,Calm,Calm,-,N/A,,Overcast,0,2013-12-07 11:15:00
5:35 AM,24.8,23.0,93,30.45,8.0,Calm,Calm,-,N/A,,Overcast,0,2013-12-07 11:35:00
5:55 AM,24.8,23.0,93,30.47,8.0,Calm,Calm,-,N/A,,Overcast,0,2013-12-07 11:55:00
6:15 AM,24.8,23.0,93,30.47,7.0,Calm,Calm,-,N/A,,Overcast,0,2013-12-07 12:15:00
6:35 AM,24.8,23.0,93,30.47,8.0,Calm,Calm,-,N/A,,Overcast,0,2013-12-07 12:35:00
6:55 AM,24.8,23.0,93,30.48,8.0,Calm,Calm,-,N/A,,Overcast,0,2013-12-07 12:55:00
7:15 AM,24.8,23.0,93,30.49,5.0,Calm,Calm,-,N/A,,Overcast,0,2013-12-07 13:15:00
7:35 AM,24.8,23.0,93,30.49,6.0,Calm,Calm,-,N/A,,Overcast,0,2013-12-07 13:35:00
7:55 AM,24.8,23.0,93,30.49,6.0,Calm,Calm,-,N/A,,Overcast,0,2013-12-07 13:55:00
8:15 AM,24.8,23.0,93,30.50,7.0,Calm,Calm,-,N/A,,Overcast,0,2013-12-07 14:15:00
8:35 AM,24.8,23.0,93,30.51,7.0,Calm,Calm,-,N/A,,Overcast,0,2013-12-07 14:35:00
8:55 AM,24.8,23.0,93,30.51,7.0,Calm,Calm,-,N/A,,Overcast,0,2013-12-07 14:55:00
9:15 AM,24.8,23.0,93,30.52,7.0,Calm,Calm,-,N/A,,Overcast,0,2013-12-07 15:15:00
9:35 AM,24.8,23.0,93,30.52,7.0,Calm,Calm,-,N/A,,Overcast,0,2013-12-07 15:35:00
9:55 AM,24.8,23.0,93,30.53,7.0,Calm,Calm,-,N/A,,Overcast,0,2013-12-07 15:55:00
10:15 AM,24.8,23.0,93,30.53,7.0,Calm,Calm,-,N/A,,Overcast,0,2013-12-07 16:15:00
10:35 AM,24.8,23.0,93,30.53,7.0,NNE,6.9,-,N/A,,Overcast,20,2013-12-07 16:35:00
10:55 AM,24.8,23.0,93,30.52,7.0,NE,6.9,-,N/A,,Overcast,40,2013-12-07 16:55:00
11:15 AM,24.8,23.0,93,30.51,7.0,NNE,10.4,-,N/A,,Overcast,30,2013-12-07 17:15:00
11:35 AM,26.6,23.0,86,30.50,7.0,NNE,10.4,-,N/A,,Overcast,20,2013-12-07 17:35:00
11:55 AM,26.6,23.0,86,30.49,8.0,North,9.2,-,N/A,,Overcast,10,2013-12-07 17:55:00
12:15 PM,26.6,23.0,86,30.47,8.0,NE,8.1,-,N/A,,Overcast,40,2013-12-07 18:15:00
12:35 PM,26.6,23.0,86,30.47,8.0,NNE,10.4,-,N/A,,Overcast,30,2013-12-07 18:35:00
12:55 PM,26.6,23.0,86,30.45,8.0,North,9.2,-,N/A,,Overcast,10,2013-12-07 18:55:00
1:15 PM,26.6,23.0,86,30.45,9.0,NNE,10.4,-,N/A,,Overcast,30,2013-12-07 19:15:00
1:35 PM,26.6,23.0,86,30.44,7.0,NNE,5.8,-,N/A,,Overcast,20,2013-12-07 19:35:00
1:55 PM,26.6,23.0,86,30.44,8.0,NNE,9.2,-,N/A,,Overcast,20,2013-12-07 19:55:00
2:15 PM,26.6,23.0,86,30.44,8.0,NNE,9.2,-,N/A,,Overcast,20,2013-12-07 20:15:00
2:35 PM,26.6,23.0,86,30.45,8.0,NE,5.8,-,N/A,,Overcast,40,2013-12-07 20:35:00
2:55 PM,26.6,23.0,86,30.44,8.0,NNE,9.2,-,N/A,,Overcast,20,2013-12-07 20:55:00
3:15 PM,26.6,23.0,86,30.43,8.0,NE,9.2,-,N/A,,Overcast,40,2013-12-07 21:15:00
3:35 PM,26.6,23.0,86,30.42,9.0,NNE,11.5,-,N/A,,Overcast,30,2013-12-07 21:35:00
3:55 PM,26.6,23.0,86,30.42,9.0,NE,9.2,16.1,N/A,,Overcast,50,2013-12-07 21:55:00
4:15 PM,26.6,24.8,93,30.41,9.0,NE,11.5,-,N/A,,Overcast,40,2013-12-07 22:15:00
4:35 PM,26.6,24.8,93,30.39,8.0,NE,10.4,17.3,N/A,,Overcast,50,2013-12-07 22:35:00
4:55 PM,26.6,24.8,93,30.40,9.0,NE,10.4,16.1,N/A,,Overcast,40,2013-12-07 22:55:00
5:15 PM,26.6,24.8,93,30.42,10.0,NNE,5.8,-,N/A,,Overcast,30,2013-12-07 23:15:00
5:35 PM,26.6,24.8,93,30.41,10.0,ENE,6.9,-,N/A,,Overcast,60,2013-12-07 23:35:00
5:55 PM,26.6,24.8,93,30.40,10.0,NE,9.2,-,N/A,,Overcast,50,2013-12-07 23:55:00
6:15 PM,26.6,24.8,93,30.39,10.0,ENE,9.2,-,N/A,,Overcast,60,2013-12-08 00:15:00
6:35 PM,26.6,24.8,93,30.39,10.0,NE,6.9,-,N/A,,Overcast,40,2013-12-08 00:35:00
6:55 PM,28.4,24.8,86,30.38,10.0,ENE,8.1,-,N/A,,Overcast,70,2013-12-08 00:55:00
7:15 PM,28.4,24.8,86,30.38,8.0,ENE,6.9,-,N/A,Rain,Freezing Rain,70,2013-12-08 01:15:00
7:35 PM,28.4,24.8,86,30.37,10.0,ENE,10.4,-,N/A,Rain,Freezing Rain,70,2013-12-08 01:35:00
7:55 PM,28.4,24.8,86,30.37,10.0,East,9.2,-,N/A,,Overcast,80,2013-12-08 01:55:00
8:15 PM,28.4,24.8,86,30.36,10.0,ENE,8.1,-,N/A,,Overcast,70,2013-12-08 02:15:00
8:35 PM,28.4,24.8,86,30.35,10.0,East,5.8,-,N/A,,Overcast,90,2013-12-08 02:35:00
8:55 PM,28.4,24.8,86,30.36,9.0,ENE,6.9,-,N/A,,Overcast,60,2013-12-08 02:55:00
9:15 PM,28.4,24.8,86,30.36,8.0,ENE,6.9,-,N/A,,Overcast,60,2013-12-08 03:15:00
9:35 PM,28.4,24.8,86,30.37,8.0,ENE,5.8,-,N/A,,Overcast,60,2013-12-08 03:35:00
9:55 PM,28.4,24.8,86,30.36,7.0,ENE,5.8,-,N/A,,Overcast,60,2013-12-08 03:55:00
10:15 PM,28.4,24.8,86,30.33,7.0,East,5.8,-,N/A,,Overcast,90,2013-12-08 04:15:00
10:35 PM,28.4,26.6,93,30.31,7.0,ENE,8.1,-,N/A,,Overcast,70,2013-12-08 04:35:00
10:55 PM,28.4,26.6,93,30.30,6.0,East,5.8,-,N/A,,Overcast,80,2013-12-08 04:55:00
11:15 PM,28.4,26.6,93,30.31,6.0,East,5.8,-,N/A,,Overcast,80,2013-12-08 05:15:00
11:35 PM,28.4,26.6,93,30.32,6.0,North,3.5,-,N/A,,Overcast,360,2013-12-08 05:35:00
11:55 PM,28.4,26.6,93,30.30,6.0,NE,4.6,-,N/A,,Overcast,40,2013-12-08 05:55:00